Left ArrowRight Arrow

38.83388, -104.82136

Hourly Observations for June 14, 2024

Temp ( °F °C ) Dew Point ( °F °C ) Humidity (%) Winds ( mph kmh ) Pressure ( in mb ) Visibility ( mi km ) Precip ( " mm )
12:55 am 00:55 Clear 71 21.9 44 6.5 37 37 S 7 11 29.68 1005 10 16 0.00 0.00
1:55 am 01:55 Clear 68 19.8 46 7.5 45 45 NW 6 9 29.69 1006 10 16 0.00 0.00
2:55 am 02:55 Clear 65 18.3 48 8.8 54 54 NW 7 11 29.67 1005 10 16 0.00 0.00
3:55 am 03:55 Mostly Cloudy 64 17.9 47 8.5 54 54 NW 5 7 29.66 1004 10 16 0.00 0.00
4:55 am 04:55 Clear 63 17.3 49 9.7 61 61 NW 9 15 29.66 1004 10 16 0.00 0.00
5:55 am 05:55 Sunny 62 16.4 51 10.7 69 69 N 7 11 29.67 1005 10 16 0.00 0.00
6:55 am 06:55 Mostly Cloudy 63 17.2 52 11.2 68 68 Calm 29.67 1005 10 16 0.00 0.00
7:55 am 07:55 Sunny 65 18.4 53 11.9 66 66 Calm 29.64 1004 10 16 0.00 0.00
8:55 am 08:55 Mostly Sunny 67 19.2 53 11.7 62 62 E 3 6 29.64 1004 10 16 0.00 0.00
9:55 am 09:55 Mostly Cloudy 68 19.9 55 12.6 63 63 SE 8 13 29.65 1004 10 16 0.00 0.00
10:55 am 10:55 Mostly Sunny 70 20.9 55 12.8 60 60 SE 7 11 29.68 1005 10 16 0.00 0.00
11:55 am 11:55 Mostly Sunny 72 22 56 13.3 58 58 SSE 3 6 29.65 1004 10 16 0.00 0.00
12:55 pm 12:55 Partly Cloudy 74 23.2 56 13.1 53 53 SE 9 15 29.61 1003 10 16 0.00 0.00
1:55 pm 13:55 Mostly Cloudy 75 24.1 54 12.1 47 47 N 10 17 29.59 1002 10 16 0.00 0.00
2:45 pm 14:45 Mostly Cloudy 73 23 41 5 31 31 NW 16 26 29.60 1003 10 16 0.00 0.00
2:55 pm 14:55 Mostly Cloudy 74 23.5 41 4.9 30 30 WNW 16 26 29.60 1003 10 16 0.00 0.00
3:24 pm 15:24 Partly Cloudy 73 23 39 4 29 29 NW 13 20 29.60 1002 10 16 0.00 0.00
3:30 pm 15:30 Mostly Sunny 75 24 36 2 24 24 W 14 22 29.59 1002 10 16 0.00 0.00
3:33 pm 15:33 Mostly Sunny 75 24 36 2 24 24 W 16 26 29.60 1003 10 16 0.00 0.00
3:39 pm 15:39 Partly Cloudy 73 23 36 2 25 25 W 13 20 29.59 1002 10 16 0.00 0.00
3:55 pm 15:55 Mostly Cloudy 74 23.3 34 1 23 23 WNW 12 19 29.57 1001 10 16 0.00 0.00
4:55 pm 16:55 Cloudy 72 22.1 37 2.7 28 28 SE 10 17 29.55 1001 10 16 0.00 0.00
5:55 pm 17:55 Cloudy 68 20 41 4.9 37 37 S 8 13 29.60 1003 10 16 0.00 0.00
6:55 pm 18:55 Cloudy 67 19.2 43 6.3 43 43 S 7 11 29.62 1003 10 16 0.00 0.00
7:55 pm 19:55 Sunny 67 19.4 43 6.1 42 42 SSW 8 13 29.57 1001 10 16 0.00 0.00
8:55 pm 20:55 Clear 64 17.9 43 6.1 46 46 NW 5 7 29.56 1001 10 16 0.00 0.00
9:55 pm 21:55 Clear 61 16 46 7.7 58 58 NW 3 6 29.60 1002 10 16 0.00 0.00
10:55 pm 22:55 Clear 61 15.9 45 7.4 57 57 NNE 6 9 29.60 1002 10 16 0.00 0.00
11:55 pm 23:55 Mostly Cloudy 64 17.5 41 5.1 44 44 Calm 29.54 1000 10 16 0.00 0.00

Powered by Vaisala Xweather